Flag for U.S.A. Weather past 2 weeks in Portland, Maine, U.S.A.

Now
73 °F

Sunny.


Feels Like: 76 °F
Forecast: 63 / 75 °F
Wind: 5 mph from Southwest

Location: Portland - Portland International Jetport

Current Time: Jul 25, 2014 at 9:53:07 PM

Latest Report: Jul 25, 2014 at 8:51 PM


Visibility: 8 mi

Pressure: 29.92 "Hg

Humidity: 62%

Dew point: 59 °F

Location of PortlandLocation

Historic Weather in Portland — Graph

°F

Portland temperature yesterday

Maximum temperature yesterday: 74 °F (at 12:51 PM)
Minimum temperature yesterday: 62 °F (at 10:51 PM)
Average temperature yesterday: 69 °F

Past Weeks' High & Low Weather Summary

 TemperatureHumidityPressure
High86 °F (Jul 23, 1:51 PM)100% (Jul 16, 12:49 AM)30.28 "Hg (Jul 16, 12:49 AM)
Low55 °F (Jul 21, 4:51 AM)43% (Jul 18, 11:51 AM)29.70 "Hg (Jul 23, 5:51 PM)
Average69 °F76%30.01 "Hg
* Reported Jul 10 8:51 PM — Jul 25 8:51 PM, Portland, Weather by CustomWeather, © 2014

Note: Actual official high and low records may vary slightly from our data, if they occured in-between our weather recording intervals... More about our weather records

Advertising

Portland weather history for previous 24 hours

 ConditionsComfort  
Time TempWeatherWind HumidityBarometerVisibility
8:51 PM
Jul 25
73 °FSunny.5 mph62%29.92 "Hg8 mi
7:51 PM75 °FSunny.6 mph58%29.90 "Hg7 mi
6:51 PM77 °FSunny.6 mph56%29.89 "Hg9 mi
5:51 PM79 °FScattered clouds.7 mph48%29.88 "Hg10 mi
4:51 PM78 °FScattered clouds.5 mph50%29.88 "Hg10 mi
3:51 PM77 °FScattered clouds.9 mph58%29.89 "Hg10 mi
2:51 PM78 °FScattered clouds.5 mph50%29.89 "Hg10 mi
1:51 PM79 °FScattered clouds.9 mph44%29.90 "Hg10 mi
12:51 PM78 °FPassing clouds.12 mph43%29.92 "Hg10 mi
11:51 AM76 °FPassing clouds.8 mph50%29.93 "Hg10 mi
10:51 AM75 °FSunny.10 mph52%29.95 "Hg10 mi
9:51 AM72 °FSunny.7 mph59%29.95 "Hg10 mi
8:51 AM68 °FSunny.3 mph63%29.94 "Hg10 mi
7:51 AM62 °FSunny.No wind73%29.95 "Hg10 mi
6:51 AM58 °FSunny.3 mph78%29.93 "Hg10 mi
5:51 AM55 °FPassing clouds.5 mph87%29.93 "Hg10 mi
4:51 AM56 °FPassing clouds.6 mph87%29.92 "Hg10 mi
3:51 AM55 °FClear.5 mph90%29.92 "Hg10 mi
2:51 AM58 °FPassing clouds.6 mph78%29.91 "Hg10 mi
1:51 AM59 °FPassing clouds.6 mph84%29.91 "Hg10 mi
12:51 AM62 °FClear.No wind75%29.91 "Hg10 mi
11:51 PM
Jul 24
62 °FClear.6 mph75%29.90 "Hg10 mi
10:51 PM62 °FPassing clouds.No wind86%29.89 "Hg10 mi
9:51 PM63 °FPassing clouds.No wind84%29.88 "Hg10 mi
Weather by CustomWeather, © 2014

See weather overviewHow to use our weather pages